Location: Clermont
(50.2608°N, 4.3172°E)
Time: 06:31:34
(UTC+00:00)

Cosmos 2123 Rocket - Pass Details

Date: 13 August 2020
Orbit: 962 x 991 km, 82.9° (Epoch: 23 September)

Event Time Altitude Azimuth Distance (km) Brightness Sun altitude
Rises 20:26:50 0° 348° (NNW) 3,671 7.9 -11.9°
Reaches altitude 10° 20:29:21 10° 346° (NNW) 2,723 7.2 -12.2°
Maximum altitude 20:35:32 67° 266° (W) 1,053 4.3 -13.0°
Drops below altitude 10° 20:41:42 10° 185° (S) 2,724 6.0 -13.7°
Enters shadow 20:43:11 - 183° (S) 3,277 6.4 -13.9°
